(111189) = 2001 WW9

Discovered at Socorro on 2001-11-17 by LINEAR.

Orbit

Orbit type: Main Belt

Note: WebGL enabled browser required.

epoch2024-03-31.0
epoch JD2460400.5
perihelion date2023-08-11.78628
perihelion JD2460168.28628
argument of perihelion (°)206.25526
ascending node (°)121.01786
inclination (°)4.55971
eccentricity0.1939433
perihelion distance (AU)2.2123260
Tisserand w.r.t. Jupiter3.3
ΔV w.r.t. Earth (km/sec)9.5
semimajor axis (AU)2.7446281
mean anomaly (°)50.33458
mean daily motion (°/day)0.21675970
aphelion distance (AU)3.277
period (years)4.55
P-vector [x]0.84005736
P-vector [y]-0.48269601
P-vector [z]-0.24760492
Q-vector [x]0.53820246
Q-vector [y]0.79885654
Q-vector [z]0.26863794
absolute magnitude15.72
phase slope0.15
uncertainty0
referenceMPEC 2024-E02
observations used749
oppositions17
arc length (days)9504
first opposition used1998
last opposition used2024
residual rms (arc-secs)0.67
perturbers coarse indicatorM-v
perturbers precise indicator003Ek
first observation date used1998-01-07.0
last observation date used2024-01-15.0
computer nameMPCLINUX
JD of orbit computation2456966.825404
perihelion JD uncertainty (days)4.3747E-05
argument of perihelion uncertainty (°)5.8441E-05
ascending node uncertainty (°)5.7581E-05
inclination uncertainty (°)3.7794E-06
eccentricity uncertainty 4.5725E-08
perihelion distance uncertainty (AU)1.2990E-07
Minimum Orbit Intersection Distances (in AU)
for orbit epoch: 2460400.5, reference: E2024-E02
Mercury1.8005
Venus1.48452
Earth1.20159
Mars0.82859
Jupiter2.05712
Saturn5.90326
Uranus15.181
Neptune26.9936

Observations

765 total observations over interval: 1998 01 07.40267 – 2024 01 15.085204
These data are available for download (format description).

Date (UT) J2000 RA J2000 Dec Magn Location Ref
1998 01 07.40267 07 52 10.99 +20 00 15.7 19.3 R 688 – Lowell Observatory, Anderson Mesa Station MPS 49637
1998 01 07.41693 07 52 10.20 +20 00 18.7   688 – Lowell Observatory, Anderson Mesa Station MPS 49637
1998 01 22.22691 07 38 19.22 +20 51 46.7 20.3 V 691 – Steward Observatory, Kitt Peak-Spacewatch MPS 49637
1998 01 22.24943 07 38 18.00 +20 51 50.8 20.2 V 691 – Steward Observatory, Kitt Peak-Spacewatch MPS 49637
1998 01 22.27195 07 38 16.72 +20 51 55.5 20.1 V 691 – Steward Observatory, Kitt Peak-Spacewatch MPS 49637
2001 10 22.39951 05 12 10.33 +17 31 41.8 21.0 V 333 – Desert Eagle Observatory MPS 46721
2001 10 22.43228 05 12 09.80 +17 31 39.7 20.7 V 333 – Desert Eagle Observatory MPS 46721
2001 10 22.45479 05 12 09.39 +17 31 36.7 19.8 V 333 – Desert Eagle Observatory MPS 46721
2001 11 17.29614 04 56 52.65 +17 00 28.1 19.6   704 – Lincoln Laboratory ETS, New Mexico MPS 42214
2001 11 17.31073 04 56 51.91 +17 00 25.1 20.2   704 – Lincoln Laboratory ETS, New Mexico MPS 42214
2001 11 17.32614 04 56 51.06 +17 00 25.5 20.1   704 – Lincoln Laboratory ETS, New Mexico MPS 42214
2001 11 17.34079 04 56 50.25 +17 00 24.3 19.8   704 – Lincoln Laboratory ETS, New Mexico MPS 42214
2001 11 17.35571 04 56 49.46 +17 00 23.2 19.8   704 – Lincoln Laboratory ETS, New Mexico MPS 42214
2001 11 18.28934 04 56 00.07 +16 59 18.7 19.5   704 – Lincoln Laboratory ETS, New Mexico MPS 42214
2001 11 18.30435 04 55 59.21 +16 59 17.2 19.9   704 – Lincoln Laboratory ETS, New Mexico MPS 42214
2001 11 18.31933 04 55 58.41 +16 59 16.2 19.9   704 – Lincoln Laboratory ETS, New Mexico MPS 42214
2001 11 18.33435 04 55 57.57 +16 59 14.4 19.6   704 – Lincoln Laboratory ETS, New Mexico MPS 42214
2001 11 18.34935 04 55 56.81 +16 59 13.3 19.8   704 – Lincoln Laboratory ETS, New Mexico MPS 42214
2001 12 17.22449 04 28 31.09 +16 38 00.0 19.3   704 – Lincoln Laboratory ETS, New Mexico MPS 46721
2001 12 17.24003 04 28 30.28 +16 38 00.0 19.7   704 – Lincoln Laboratory ETS, New Mexico MPS 46721
2001 12 17.25531 04 28 29.43 +16 38 00.5 19.7   704 – Lincoln Laboratory ETS, New Mexico MPS 46721
2001 12 17.27040 04 28 28.64 +16 38 00.2 19.3   704 – Lincoln Laboratory ETS, New Mexico MPS 46721
2001 12 17.28551 04 28 27.88 +16 37 59.8 19.5   704 – Lincoln Laboratory ETS, New Mexico MPS 46721
2001 12 20.22505 04 26 01.39 +16 37 55.8 19.3   704 – Lincoln Laboratory ETS, New Mexico MPS 46721
2001 12 20.24074 04 26 00.68 +16 37 55.1 19.5   704 – Lincoln Laboratory ETS, New Mexico MPS 46721
2001 12 20.25600 04 26 00.00 +16 37 56.4 20.5   704 – Lincoln Laboratory ETS, New Mexico MPS 46721
2001 12 20.27122 04 25 59.10 +16 37 54.4 19.9   704 – Lincoln Laboratory ETS, New Mexico MPS 46721
2001 12 20.28700 04 25 58.32 +16 37 54.9 19.7   704 – Lincoln Laboratory ETS, New Mexico MPS 46721
2004 04 14.39391 14 35 02.91 -07 53 07.5 19.7 R 699 – Lowell Observatory-LONEOS MPS 104259
2004 04 14.40405 14 35 02.28 -07 53 03.4   699 – Lowell Observatory-LONEOS MPS 104259
2004 04 14.41415 14 35 01.84 -07 53 01.0   699 – Lowell Observatory-LONEOS MPS 104259
2004 04 14.42425 14 35 01.39 -07 52 58.9   699 – Lowell Observatory-LONEOS MPS 104259
2004 04 20.35693 14 30 18.22 -07 25 20.8 19.2   704 – Lincoln Laboratory ETS, New Mexico MPS 105066
2004 04 20.36794 14 30 17.61 -07 25 18.0 19.3   704 – Lincoln Laboratory ETS, New Mexico MPS 105066
2004 04 20.37896 14 30 17.12 -07 25 14.9 19.7   704 – Lincoln Laboratory ETS, New Mexico MPS 105066
2004 04 20.38997 14 30 16.51 -07 25 11.7 19.0   704 – Lincoln Laboratory ETS, New Mexico MPS 105066
2004 04 20.40097 14 30 16.01 -07 25 08.0 19.2   704 – Lincoln Laboratory ETS, New Mexico MPS 105066
2004 04 22.31504 14 28 40.34 -07 16 17.5 18.8 C 704 – Lincoln Laboratory ETS, New Mexico MPS 289740
2004 04 22.32535 14 28 39.71 -07 16 14.8 18.8 C 704 – Lincoln Laboratory ETS, New Mexico MPS 289740
2004 04 22.34643 14 28 38.65 -07 16 09.9 19.5 C 704 – Lincoln Laboratory ETS, New Mexico MPS 289740
2004 04 22.35691 14 28 38.07 -07 16 07.9 19.0 C 704 – Lincoln Laboratory ETS, New Mexico MPS 289740
2004 05 18.27810 14 07 14.46 -05 39 07.5 19.6   704 – Lincoln Laboratory ETS, New Mexico MPS 107371
2004 05 18.28746 14 07 14.05 -05 39 04.8 19.9   704 – Lincoln Laboratory ETS, New Mexico MPS 107371
2004 05 18.29675 14 07 13.57 -05 39 04.5 19.8   704 – Lincoln Laboratory ETS, New Mexico MPS 107371
2004 05 18.30603 14 07 13.14 -05 39 01.5 19.9   704 – Lincoln Laboratory ETS, New Mexico MPS 107371
2004 05 18.31533 14 07 12.77 -05 39 00.5 19.7   704 – Lincoln Laboratory ETS, New Mexico MPS 107371
2005 08 26.45043 00 34 33.33 -02 47 46.4 18.4   644 – Palomar Mountain/NEAT MPS 140145
2005 08 26.46877 00 34 32.96 -02 47 52.4 18.6   644 – Palomar Mountain/NEAT MPS 140145
2005 08 26.48474 00 34 32.63 -02 47 57.5 18.5   644 – Palomar Mountain/NEAT MPS 140145
2005 08 27.39418 00 34 15.53 -02 52 56.1 18.2 R 699 – Lowell Observatory-LONEOS MPS 140145
2005 08 27.41256 00 34 15.12 -02 53 02.4   699 – Lowell Observatory-LONEOS MPS 140145
2005 08 27.43094 00 34 14.70 -02 53 08.3   699 – Lowell Observatory-LONEOS MPS 140145
2005 08 27.44935 00 34 14.27 -02 53 13.9   699 – Lowell Observatory-LONEOS MPS 140145
2005 09 05.54925 00 30 10.59 -03 48 26.4 19.8   608 – Haleakala-AMOS MPS 141032
2005 09 05.56002 00 30 10.20 -03 48 30.9 19.4   608 – Haleakala-AMOS MPS 141032
2005 09 05.57043 00 30 09.85 -03 48 34.8 19.2   608 – Haleakala-AMOS MPS 141032
2005 09 06.29594 00 29 45.77 -03 53 18.3 18.2   704 – Lincoln Laboratory ETS, New Mexico MPS 141032
2005 09 06.30708 00 29 45.39 -03 53 22.1 19.1   704 – Lincoln Laboratory ETS, New Mexico MPS 141032
2005 09 06.31822 00 29 44.96 -03 53 26.6 18.8   704 – Lincoln Laboratory ETS, New Mexico MPS 141032
2005 09 06.32949 00 29 44.58 -03 53 30.3 18.7   704 – Lincoln Laboratory ETS, New Mexico MPS 141032
2005 09 06.34062 00 29 44.18 -03 53 34.3 19.1   704 – Lincoln Laboratory ETS, New Mexico MPS 141032
2005 09 14.25950 00 24 39.16 -04 46 37.5 18.0 V 703 – Catalina Sky Survey MPS 141661
2005 09 14.26605 00 24 38.88 -04 46 40.7 18.0 V 703 – Catalina Sky Survey MPS 141661
2005 09 14.27252 00 24 38.59 -04 46 43.9 17.9 V 703 – Catalina Sky Survey MPS 141661
2005 09 14.27902 00 24 38.34 -04 46 45.1 18.0 V 703 – Catalina Sky Survey MPS 141661
2005 09 23.35630 00 17 50.92 -05 46 36.0 18.3 V 703 – Catalina Sky Survey MPS 142204
2005 09 23.36400 00 17 50.53 -05 46 39.1 18.5 V 703 – Catalina Sky Survey MPS 142204
2005 09 23.37177 00 17 50.17 -05 46 42.0 18.3 V 703 – Catalina Sky Survey MPS 142204
2005 09 25.21617 00 16 24.59 -05 58 10.9 18.3 R 644 – Palomar Mountain/NEAT MPS 143739
2005 09 25.23696 00 16 23.57 -05 58 18.7 17.9 R 644 – Palomar Mountain/NEAT MPS 143739
2005 09 25.25911 00 16 22.49 -05 58 27.0 17.6 R 644 – Palomar Mountain/NEAT MPS 143739
2005 09 30.26777 00 12 29.90 -06 27 40.0 17.9 R 699 – Lowell Observatory-LONEOS MPS 143739
2005 09 30.29262 00 12 28.70 -06 27 47.5   699 – Lowell Observatory-LONEOS MPS 143739
2005 09 30.31742 00 12 27.53 -06 27 56.1   699 – Lowell Observatory-LONEOS MPS 143739
2005 09 30.34224 00 12 26.28 -06 28 04.0   699 – Lowell Observatory-LONEOS MPS 143739
2005 10 05.28589 00 08 45.81 -06 53 17.8 18.0 V 703 – Catalina Sky Survey MPS 143739
2005 10 05.29125 00 08 45.60 -06 53 19.4 18.0 V 703 – Catalina Sky Survey MPS 143739
2005 10 05.29664 00 08 45.34 -06 53 21.0 18.2 V 703 – Catalina Sky Survey MPS 143739
2005 10 05.30199 00 08 45.09 -06 53 22.0 18.1 V 703 – Catalina Sky Survey MPS 143739
2005 10 25.20925 23 57 58.93 -07 46 14.7 18.7 V G96 – Mt. Lemmon Survey MPS 150549
2005 10 25.21633 23 57 58.78 -07 46 15.0 18.8 V G96 – Mt. Lemmon Survey MPS 150549
2005 10 25.22340 23 57 58.64 -07 46 15.2 18.9 V G96 – Mt. Lemmon Survey MPS 150549
2005 10 25.23049 23 57 58.46 -07 46 15.5 18.9 V G96 – Mt. Lemmon Survey MPS 150549
2005 10 25.83841 23 57 47.29 -07 46 32.8   J95 – Great Shefford MPS 150549
2005 10 25.87332 23 57 46.62 -07 46 33.6 18.7 R J95 – Great Shefford MPS 150549
2005 10 26.19524 23 57 40.81 -07 46 38.6 18.6   704 – Lincoln Laboratory ETS, New Mexico MPS 150549
2005 10 26.20699 23 57 40.50 -07 46 38.6 19.3   704 – Lincoln Laboratory ETS, New Mexico MPS 150549
2005 10 26.21809 23 57 40.36 -07 46 39.4   701 – Junk Bond Observatory, Sierra Vista MPS 150549
